Location: Obersdorf
(47.4079°N, 10.2781°E)
Time: 21:25:12
(UTC+01:00)

AO-109 - Pass Details

Date: 05 December 2021
Orbit: 479 x 515 km, 60.7° (Epoch: 27 January)

Event Time Altitude Azimuth Distance (km) Brightness Sun altitude
Exits shadow 05:22:34 56° 85° (E) 574 ? -24.1°
Drops below altitude 10° 05:25:44 10° 125° (SE) 1,651 ? -23.5°
Sets 05:27:53 0° 128° (SE) 2,528 ? -23.2°
